When you browse on this site, cookies collect data to enhance your experience and personalize the content and advertising you see.
Visit our Privacy Policy to learn more. By continuing to use the site, you agree to this use of cookies and data.
  • In Hungary
  • List of Countries
  • For 7 days
  • Water Temperature
  • Weather Map
  • News
  • Weather Widgets
  • user-avatar
    Login

    Hourly Weather Mayatas

    Today, 30 March, Monday

    Time Temperature Precipitation Wind Pressure Humidity
    00:00 +9°C° 0 mm 3 mps 703 mmHg 39%
    01:00 +9°C° 0 mm 3 mps 703 mmHg 37%
    02:00 +9°C° 0 mm 3 mps 703 mmHg 36%
    03:00 +9°C° 0 mm 3 mps 703 mmHg 35%
    04:00 +9°C° 0 mm 3 mps 702 mmHg 34%
    05:00 +9°C° 0 mm 3 mps 702 mmHg 34%
    06:00 +10°C° 0 mm 2 mps 702 mmHg 35%
    07:00 +13°C° 0 mm 2 mps 702 mmHg 37%
    08:00 +14°C° 0 mm 2 mps 703 mmHg 39%
    09:00 +16°C° 0 mm 2 mps 703 mmHg 35%
    10:00 +18°C° 0 mm 2 mps 703 mmHg 31%
    11:00 +20°C° 0 mm 2 mps 703 mmHg 27%
    12:00 +20°C° 0 mm 2 mps 702 mmHg 27%
    13:00 +21°C° 0 mm 2 mps 702 mmHg 28%
    14:00 +23°C° 0 mm 2 mps 701 mmHg 28%
    15:00 +21°C° 0 mm 3 mps 701 mmHg 31%
    16:00 +20°C° 0 mm 4 mps 701 mmHg 34%
    17:00 +20°C° 0 mm 4 mps 701 mmHg 37%
    18:00 +18°C° 0 mm 4 mps 701 mmHg 39%
    19:00 +15°C° 0 mm 4 mps 700 mmHg 41%
    20:00 +13°C° 0 mm 4 mps 700 mmHg 43%
    21:00 +13°C° 0 mm 4 mps 699 mmHg 42%
    22:00 +13°C° 0 mm 4 mps 699 mmHg 40%
    23:00 +12°C° 0 mm 4 mps 699 mmHg 39%

    Tomorrow, 31 March, Tuesday

    Time Temperature Precipitation Wind Pressure Humidity
    00:00 +12°C° 0 mm 3 mps 698 mmHg 39%
    01:00 +12°C° 0 mm 3 mps 697 mmHg 39%
    02:00 +12°C° 0 mm 3 mps 697 mmHg 39%
    03:00 +12°C° 0 mm 3 mps 697 mmHg 40%
    04:00 +12°C° 0 mm 3 mps 696 mmHg 40%
    05:00 +12°C° 0 mm 3 mps 696 mmHg 41%
    06:00 +13°C° 0 mm 3 mps 696 mmHg 42%
    07:00 +14°C° 0 mm 3 mps 696 mmHg 44%
    08:00 +16°C° 0 mm 2 mps 696 mmHg 45%
    09:00 +18°C° 0 mm 2 mps 697 mmHg 40%
    10:00 +20°C° 0 mm 2 mps 697 mmHg 35%
    11:00 +24°C° 0 mm 1 mps 697 mmHg 30%
    12:00 +23°C° 0 mm 2 mps 697 mmHg 32%
    13:00 +23°C° 0 mm 2 mps 697 mmHg 34%
    14:00 +22°C° 0 mm 3 mps 697 mmHg 36%
    15:00 +21°C° 0 mm 3 mps 697 mmHg 41%
    16:00 +21°C° 0 mm 4 mps 697 mmHg 45%
    17:00 +20°C° 0 mm 4 mps 698 mmHg 49%
    18:00 +18°C° 0.3 mm 4 mps 698 mmHg 57%
    19:00 +16°C° 0.3 mm 3 mps 699 mmHg 65%
    20:00 +13°C° 0.3 mm 3 mps 699 mmHg 73%
    21:00 +13°C° 1.4 mm 3 mps 699 mmHg 77%
    22:00 +14°C° 1.4 mm 2 mps 699 mmHg 80%
    23:00 +13°C° 1.4 mm 2 mps 700 mmHg 83%

    Day after tomorrow, 1 April, Wednesday

    Time Temperature Precipitation Wind Pressure Humidity
    00:00 +13°C° 0 mm 2 mps 699 mmHg 82%
    01:00 +13°C° 0 mm 1 mps 699 mmHg 81%
    02:00 +13°C° 0 mm 1 mps 699 mmHg 79%
    03:00 +13°C° 0 mm 1 mps 700 mmHg 78%
    04:00 +13°C° 0 mm 1 mps 700 mmHg 77%
    05:00 +13°C° 0 mm 1 mps 700 mmHg 75%
    06:00 +14°C° 0 mm 1 mps 701 mmHg 72%
    07:00 +14°C° 0 mm 1 mps 701 mmHg 69%
    08:00 +15°C° 0 mm 1 mps 702 mmHg 66%
    09:00 +16°C° 0.4 mm 1 mps 702 mmHg 64%
    10:00 +17°C° 0.4 mm 2 mps 702 mmHg 62%
    11:00 +17°C° 0.4 mm 3 mps 702 mmHg 60%
    12:00 +18°C° 0.3 mm 4 mps 702 mmHg 58%
    13:00 +17°C° 0.3 mm 5 mps 703 mmHg 57%
    14:00 +19°C° 0.3 mm 6 mps 703 mmHg 56%
    15:00 +16°C° 0.8 mm 6 mps 703 mmHg 61%
    16:00 +15°C° 0.8 mm 6 mps 703 mmHg 67%
    17:00 +14°C° 0.8 mm 6 mps 703 mmHg 72%
    18:00 +13°C° 0.5 mm 5 mps 704 mmHg 76%
    19:00 +12°C° 0.5 mm 5 mps 704 mmHg 81%
    20:00 +10°C° 0.5 mm 5 mps 705 mmHg 85%
    21:00 +10°C° 0.2 mm 5 mps 705 mmHg 82%
    22:00 +11°C° 0.2 mm 4 mps 705 mmHg 79%
    23:00 +10°C° 0.2 mm 3 mps 705 mmHg 76%

    2 April, Thursday

    Time Temperature Precipitation Wind Pressure Humidity
    00:00 +10°C° 0 mm 3 mps 705 mmHg 76%
    01:00 +10°C° 0 mm 3 mps 705 mmHg 76%
    02:00 +9°C° 0 mm 3 mps 705 mmHg 76%
    03:00 +9°C° 0 mm 3 mps 706 mmHg 75%
    04:00 +9°C° 0 mm 3 mps 706 mmHg 75%
    05:00 +9°C° 0 mm 2 mps 706 mmHg 75%
    06:00 +10°C° 0 mm 2 mps 706 mmHg 71%
    07:00 +12°C° 0 mm 2 mps 707 mmHg 68%
    08:00 +13°C° 0 mm 2 mps 707 mmHg 65%
    09:00 +13°C° 0 mm 3 mps 707 mmHg 60%
    10:00 +14°C° 0 mm 4 mps 707 mmHg 55%
    11:00 +17°C° 0 mm 4 mps 707 mmHg 50%
    12:00 +17°C° 0 mm 4 mps 707 mmHg 49%
    13:00 +18°C° 0 mm 4 mps 707 mmHg 47%
    14:00 +18°C° 0 mm 3 mps 707 mmHg 46%
    15:00 +18°C° 0.1 mm 3 mps 706 mmHg 48%
    16:00 +17°C° 0.1 mm 2 mps 706 mmHg 49%
    17:00 +17°C° 0.1 mm 2 mps 705 mmHg 51%
    18:00 +16°C° 0 mm 2 mps 705 mmHg 56%
    19:00 +14°C° 0 mm 2 mps 705 mmHg 62%
    20:00 +12°C° 0 mm 2 mps 705 mmHg 67%
    21:00 +12°C° 0 mm 2 mps 705 mmHg 66%
    22:00 +12°C° 0 mm 2 mps 705 mmHg 64%
    23:00 +10°C° 0 mm 2 mps 705 mmHg 63%

    3 April, Friday

    Time Temperature Precipitation Wind Pressure Humidity
    00:00 +10°C° 0 mm 2 mps 705 mmHg 60%
    01:00 +10°C° 0 mm 2 mps 705 mmHg 57%
    02:00 +10°C° 0 mm 2 mps 704 mmHg 54%
    03:00 +10°C° 0 mm 2 mps 704 mmHg 50%
    04:00 +10°C° 0 mm 2 mps 704 mmHg 46%
    05:00 +10°C° 0 mm 2 mps 704 mmHg 42%
    06:00 +13°C° 0 mm 2 mps 704 mmHg 42%
    07:00 +14°C° 0 mm 2 mps 704 mmHg 42%
    08:00 +15°C° 0 mm 2 mps 705 mmHg 43%
    09:00 +17°C° 0 mm 2 mps 705 mmHg 37%
    10:00 +19°C° 0 mm 2 mps 705 mmHg 31%
    11:00 +21°C° 0 mm 2 mps 705 mmHg 26%
    12:00 +21°C° 0 mm 3 mps 705 mmHg 32%
    13:00 +20°C° 0 mm 4 mps 705 mmHg 39%
    14:00 +19°C° 0 mm 5 mps 705 mmHg 46%
    15:00 +19°C° 0 mm 5 mps 704 mmHg 45%
    16:00 +19°C° 0 mm 4 mps 704 mmHg 45%
    17:00 +20°C° 0 mm 4 mps 704 mmHg 44%
    18:00 +18°C° 0 mm 4 mps 704 mmHg 48%
    19:00 +16°C° 0 mm 3 mps 704 mmHg 52%
    20:00 +13°C° 0 mm 3 mps 704 mmHg 56%
    21:00 +13°C° 0.1 mm 3 mps 704 mmHg 57%
    22:00 +13°C° 0.1 mm 3 mps 704 mmHg 57%
    23:00 +14°C° 0.1 mm 2 mps 703 mmHg 57%

    4 April, Saturday

    Time Temperature Precipitation Wind Pressure Humidity
    00:00 +13°C° 0 mm 3 mps 703 mmHg 56%
    01:00 +13°C° 0 mm 3 mps 703 mmHg 55%
    02:00 +13°C° 0 mm 3 mps 703 mmHg 54%
    03:00 +13°C° 0 mm 3 mps 703 mmHg 53%
    04:00 +13°C° 0 mm 3 mps 703 mmHg 51%
    05:00 +13°C° 0 mm 3 mps 703 mmHg 49%
    06:00 +16°C° 0 mm 3 mps 703 mmHg 49%
    07:00 +17°C° 0 mm 2 mps 703 mmHg 49%
    08:00 +18°C° 0 mm 2 mps 703 mmHg 49%
    09:00 +20°C° 0 mm 2 mps 704 mmHg 44%
    10:00 +23°C° 0 mm 2 mps 704 mmHg 38%
    11:00 +25°C° 0 mm 3 mps 704 mmHg 32%
    12:00 +25°C° 0 mm 3 mps 704 mmHg 33%
    13:00 +25°C° 0 mm 3 mps 703 mmHg 33%
    14:00 +25°C° 0 mm 4 mps 703 mmHg 34%
    15:00 +25°C° 0 mm 3 mps 703 mmHg 37%
    16:00 +24°C° 0 mm 2 mps 703 mmHg 39%
    17:00 +24°C° 0 mm 1 mps 702 mmHg 42%
    18:00 +22°C° 0 mm 1 mps 702 mmHg 45%
    19:00 +20°C° 0 mm 1 mps 702 mmHg 48%
    20:00 +19°C° 0 mm 1 mps 702 mmHg 51%
    21:00 +17°C° 0 mm 2 mps 702 mmHg 50%
    22:00 +17°C° 0 mm 2 mps 702 mmHg 50%
    23:00 +17°C° 0 mm 2 mps 701 mmHg 49%
    Show more